Location: Bakhuizen
(52.8696°N, 5.4575°E)
Time: 23:03:54
(UTC+00:00)

SWARM C - Pass Details

Date: 11 May 2021
Orbit: 427 x 431 km, 87.3° (Epoch: 24 June)

Event Time Altitude Azimuth Distance (km) Brightness Sun altitude
Rises 20:44:12 0° 357° (N) 2,423 9.2 -10.1°
Reaches altitude 10° 20:46:16 10° 357° (N) 1,549 8.2 -10.3°
Maximum altitude 20:49:37 88° 84° (E) 440 4.5 -10.6°
Enters shadow 20:52:42 12° 178° (S) 1,430 6.7 -10.9°
